[[{"header":{"parameterUnit":"m.s-1","parameterCategory":1,"la1":30.2991,"la2":30.254,"lo1":-89.0895,"lo2":-89.0444,"dy":0.0017,"dx":0.0017,"nx":28,"ny":28,"refTime":"2025-04-01T21:00:00:Z","depth":0,"parameterNumber":2,"parameterNumberName":"U-component_of_WINDS"},"data":[0,0,0,0,0,0,0,0,0,0,0,0,0,0,0,0,0,0,0,0,0,0,0,0,0,0,0,0,0,0,0,0,0,0,0,0,0,0,0,0,0,0,0,0,0,0,0,0,0,0,0,0,0,0,0,0,0,0,-4.2586,-4.2586,0,-4.2524,-4.2523,-4.2522,-4.2376,-4.2373,-4.237,-4.2367,-4.2307,-4.2308,-4.2309,0,0,0,0,0,0,0,0,0,0,0,0,0,-4.2583,-4.2584,-4.2586,-4.2586,-4.2585,-4.2524,-4.2523,-4.2522,-4.2377,-4.2373,-4.2369,-4.2366,-4.2307,-4.2308,-4.231,0,0,0,0,0,0,0,0,0,0,0,0,0,-4.2559,-4.2585,-4.2587,-4.2505,-4.2497,-4.2524,-4.2523,-4.2522,-4.2377,-4.2373,-4.2368,-4.2364,-4.2306,-4.2308,-4.231,-4.2413,0,0,-4.2315,-4.2316,0,0,0,0,0,0,0,0,-4.2561,-4.256,-4.2518,-4.251,-4.2502,-4.2453,-4.25,-4.2485,-4.2378,-4.2423,-4.2367,-4.2362,-4.236,-4.2357,-4.2355,-4.241,-4.2407,-4.2316,-4.2317,-4.2318,-4.2318,0,0,0,0,0,0,0,-4.2563,-4.2562,-4.2562,-4.2517,-4.2507,-4.2472,-4.2464,-4.2496,-4.2418,-4.2419,-4.2408,-4.2402,-4.2354,-4.2354,-4.2353,-4.2406,-4.2316,-4.2317,-4.2318,-4.2319,-4.2542,-4.2547,0,0,0,0,0,0,-4.2576,-4.2564,-4.2564,-4.256,-4.252,-4.2476,-4.2467,-4.2473,-4.2417,-4.2404,-4.2406,-4.2396,-4.2353,-4.2351,-4.235,-4.2467,-4.2318,-4.2319,-4.232,-4.2538,-4.2543,-4.2549,0,0,0,0,0,0,-4.2576,-4.2577,-4.2566,-4.2559,-4.2555,-4.2481,-4.249,-4.2474,-4.2473,-4.2407,-4.2393,-4.242,-4.2349,-4.2347,-4.2398,-4.2463,-4.232,-4.2322,-4.2532,-4.2539,-4.2546,-4.2702,0,0,0,0,0,0,-4.2577,-4.2578,-4.2616,-4.2561,-4.2556,-4.2615,-4.2494,-4.2476,-4.2477,-4.2462,-4.2416,-4.2404,-4.2345,-4.2396,-4.24,-4.2463,-4.2323,-4.2526,-4.2535,-4.2544,-4.2691,-4.2714,-4.2733,0,0,0,0,0,-4.2577,-4.2663,-4.2619,-4.2619,-4.2601,-4.2619,-4.2616,-4.2545,-4.2482,-4.252,-4.2478,-4.2406,-4.2455,-4.2402,-4.2405,-4.247,-4.2521,-4.2532,-4.2543,-4.2681,-4.2709,-4.2733,0,0,0,0,0,0,-4.273,-4.2655,-4.2604,-4.2675,-4.2654,-4.2594,-4.2639,-4.2577,-4.2575,-4.2562,-4.2475,-4.2466,-4.2528,-4.2504,-4.2447,-4.2567,-4.2476,-4.2489,-4.2581,-4.2607,-4.2627,-4.2633,-4.2325,0,0,0,0,0,-4.2771,-4.279,-4.2724,-4.2793,-4.2785,-4.2715,-4.2719,-4.2666,-4.2642,-4.2633,-4.2594,-4.2574,-4.2585,-4.2594,-4.26,-4.2686,-4.2674,-4.2732,-4.2753,-4.2771,-4.2783,-4.2827,-4.2852,-4.2584,-4.2584,-4.2584,0,0,-4.2858,-4.2819,-4.2837,-4.2822,-4.28,-4.2823,-4.2708,-4.2738,-4.2754,-4.2638,-4.2683,-4.2654,-4.2626,-4.2695,-4.2723,-4.2676,-4.2854,-4.2785,-4.28,-4.2802,-4.2841,-4.2866,-4.2889,-4.2591,-4.259,-4.2589,0,0,-4.3027,-4.3,-4.3054,-4.3033,-4.3001,-4.2953,-4.2966,-4.2915,-4.2891,-4.2935,-4.2848,-4.2867,-4.2887,-4.2871,-4.2865,-4.3028,-4.2963,-4.3033,-4.3145,-4.3189,-4.321,-4.3228,-4.3287,-4.331,-4.3045,-4.3045,-4.3045,0,-4.314,-4.317,-4.309,-4.3125,-4.3122,-4.3015,-4.307,-4.3055,-4.3027,-4.3027,-4.2975,-4.2998,-4.2971,-4.3035,-4.3075,-4.3074,-4.3087,-4.3038,-4.3213,-4.323,-4.3246,-4.3302,-4.3324,-4.3054,-4.3053,-4.3052,-4.3051,0,-4.331,-4.3332,-4.338,-4.3354,-4.3356,-4.3401,-4.3329,-4.334,-4.3287,-4.3246,-4.3292,-4.3256,-4.3253,-4.3264,-4.3213,-4.3321,-4.3293,-4.3228,-4.3136,-4.3282,-4.3333,-4.3353,-4.3066,-4.3063,-4.3061,-4.3058,0,0,-4.3576,-4.3504,-4.3523,-4.351,-4.3465,-4.3481,-4.3522,-4.3517,-4.353,-4.3514,-4.3546,-4.3565,-4.3504,-4.3498,-4.3444,-4.3483,-4.3615,-4.3413,-4.3411,-4.3453,-4.3733,-4.3784,-4.381,-4.3571,-4.3574,-4.3577,-4.3736,0,-4.3736,-4.3799,-4.3728,-4.3807,-4.3828,-4.3727,-4.3762,-4.3739,-4.3701,-4.3713,-4.3671,-4.3687,-4.3605,-4.3601,-4.3634,-4.3592,-4.3671,-4.3579,-4.3602,-4.3604,-4.3613,-4.3836,-4.3889,-4.4041,-4.3755,-4.3759,-4.3761,0,-4.3932,-4.3923,-4.4004,-4.3954,-4.396,-4.3993,-4.3983,-4.3996,-4.3968,-4.3938,-4.3931,-4.3865,-4.3902,-4.3811,-4.3862,-4.3802,-4.3806,-4.3787,-4.3791,-4.3792,-4.3692,-4.3844,-4.4087,-4.4111,-4.3791,-4.3789,-4.3787,0,-4.4119,-4.4128,-4.4177,-4.4169,-4.4112,-4.4137,-4.4115,-4.4082,-4.4084,-4.4076,-4.4077,-4.4074,-4.4073,-4.4073,-4.4008,-4.3948,-4.4068,-4.3971,-4.4045,-4.4047,-4.4076,-4.4075,-4.4325,-4.4077,-4.4077,-4.4076,-4.4076,0,-4.4306,-4.436,-4.426,-4.4291,-4.4349,-4.4266,-4.4326,-4.4293,-4.4265,-4.4289,-4.4201,-4.4225,-4.4138,-4.4153,-4.4103,-4.4153,-4.4153,-4.413,-4.4117,-4.4139,-4.4142,-4.4142,-4.4131,-4.4082,-4.4081,-4.408,-4.4079,0,-4.4526,-4.4461,-4.4508,-4.4449,-4.4436,-4.4481,-4.4431,-4.4458,-4.4413,-4.4444,-4.4447,-4.4378,-4.4391,-4.4326,-4.4329,-4.4295,-4.4371,-4.4339,-4.438,-4.4371,-4.4449,-4.4443,-4.4708,-4.4739,-4.4471,-4.4473,-4.4476,0,-4.465,-4.4689,-4.4634,-4.4643,-4.4624,-4.464,-4.4641,-4.4561,-4.4566,-4.4537,-4.4568,-4.4574,-4.4574,-4.46,-4.4551,-4.4553,-4.4521,-4.4613,-4.4521,-4.4542,-4.4524,-4.4523,-4.4527,-4.4634,-4.4637,-4.464,-4.4642,0,-4.4879,-4.4844,-4.4848,-4.4842,-4.4846,-4.4837,-4.4822,-4.4835,-4.4749,-4.4759,-4.4771,-4.4771,-4.4773,-4.478,-4.4771,-4.4749,-4.4683,-4.4671,-4.4689,-4.4713,-4.4736,-4.4726,-4.4435,-4.4666,-4.4664,-4.4662,-4.4661,-4.466,-4.5055,-4.5085,-4.5051,-4.5058,-4.5039,-4.5027,-4.5049,-4.5007,-4.5015,-4.5009,-4.4961,-4.4983,-4.4954,-4.4935,-4.4919,-4.4935,-4.4891,-4.4916,-4.4923,-4.4931,-4.4945,-4.4732,-4.4933,-4.4932,-4.4932,-4.4931,-4.493,0,-4.528,-4.5252,-4.526,-4.5242,-4.5249,-4.5182,-4.5163,-4.5173,-4.5192,-4.517,-4.5172,-4.5186,-4.5192,-4.5144,-4.5144,-4.5166,-4.5136,-4.5169,-4.5168,-4.5164,-4.4983,-4.4969,-4.5194,-4.5194,-4.5194,-4.5194,-4.5194,-4.5194,-4.5398,-4.5445,-4.5407,-4.5444,-4.5415,-4.5434,-4.5429,-4.5418,-4.54,-4.5419,-4.5423,-4.5391,-4.5358,-4.5355,-4.5359,-4.5344,-4.5349,-4.5394,-4.5369,-4.5202,-4.5176,-4.5152,-4.5138,-4.5395,-4.5395,-4.5548,-4.5549,-4.555]},{"header":{"parameterUnit":"m.s-1","parameterCategory":1,"la1":30.2991,"la2":30.254,"lo1":-89.0895,"lo2":-89.0444,"dy":0.0017,"dx":0.0017,"nx":28,"ny":28,"refTime":"2025-04-01T21:00:00:Z","depth":0,"parameterNumber":3,"parameterNumberName":"V-component_of_WINDS"},"data":[0,0,0,0,0,0,0,0,0,0,0,0,0,0,0,0,0,0,0,0,0,0,0,0,0,0,0,0,0,0,0,0,0,0,0,0,0,0,0,0,0,0,0,0,0,0,0,0,0,0,0,0,0,0,0,0,0,0,-2.1451,-2.1451,0,-2.1484,-2.1484,-2.1485,-2.1476,-2.1475,-2.1475,-2.1474,-2.1506,-2.1508,-2.1509,0,0,0,0,0,0,0,0,0,0,0,0,0,-2.1377,-2.1378,-2.1451,-2.1451,-2.1452,-2.1484,-2.1484,-2.1485,-2.1476,-2.1475,-2.1474,-2.1474,-2.1506,-2.1508,-2.1509,0,0,0,0,0,0,0,0,0,0,0,0,0,-2.1409,-2.1379,-2.1451,-2.1451,-2.1451,-2.1484,-2.1484,-2.1485,-2.1476,-2.1475,-2.1474,-2.1473,-2.1505,-2.1507,-2.151,-2.1543,0,0,-2.1516,-2.1517,0,0,0,0,0,0,0,0,-2.1407,-2.1412,-2.1451,-2.1451,-2.1452,-2.1475,-2.147,-2.1504,-2.1476,-2.1467,-2.1474,-2.1473,-2.1496,-2.1499,-2.1508,-2.1545,-2.1546,-2.1517,-2.1518,-2.1519,-2.1519,0,0,0,0,0,0,0,-2.1405,-2.1411,-2.1464,-2.1451,-2.1452,-2.1449,-2.1452,-2.1477,-2.1487,-2.1467,-2.1467,-2.1471,-2.1497,-2.1506,-2.1508,-2.1547,-2.1516,-2.1518,-2.152,-2.1521,-2.1611,-2.1612,0,0,0,0,0,0,-2.1403,-2.1409,-2.1463,-2.1465,-2.1427,-2.1451,-2.1455,-2.1468,-2.1486,-2.1488,-2.1472,-2.1471,-2.1502,-2.1506,-2.151,-2.1549,-2.1519,-2.1521,-2.1522,-2.161,-2.1611,-2.1613,0,0,0,0,0,0,-2.1401,-2.1408,-2.1461,-2.1437,-2.1443,-2.1453,-2.1468,-2.1469,-2.1479,-2.149,-2.1491,-2.1479,-2.1502,-2.1506,-2.1535,-2.155,-2.1522,-2.1524,-2.1609,-2.161,-2.1612,-2.163,0,0,0,0,0,0,-2.1399,-2.1407,-2.1421,-2.1437,-2.1445,-2.1487,-2.1469,-2.1471,-2.1483,-2.1481,-2.1497,-2.1499,-2.1501,-2.1531,-2.1537,-2.1553,-2.1526,-2.1607,-2.161,-2.1611,-2.1628,-2.1632,-2.1635,0,0,0,0,0,-2.1397,-2.1425,-2.1422,-2.1428,-2.1462,-2.1488,-2.1492,-2.1495,-2.1484,-2.1497,-2.1504,-2.1499,-2.1548,-2.1534,-2.154,-2.1557,-2.1606,-2.1609,-2.1611,-2.1626,-2.1631,-2.1635,0,0,0,0,0,0,-2.141,-2.1427,-2.1424,-2.1458,-2.1471,-2.1486,-2.1503,-2.15,-2.1516,-2.1514,-2.1516,-2.152,-2.1549,-2.1556,-2.1541,-2.159,-2.1575,-2.1579,-2.1585,-2.1589,-2.1593,-2.159,-2.1527,0,0,0,0,0,-2.1417,-2.1437,-2.145,-2.1479,-2.1486,-2.1493,-2.1505,-2.1505,-2.1519,-2.1525,-2.1534,-2.1547,-2.1566,-2.1578,-2.1595,-2.1628,-2.1631,-2.1643,-2.1647,-2.165,-2.1653,-2.167,-2.1675,-2.162,-2.162,-2.162,0,0,-2.1431,-2.1443,-2.1456,-2.1482,-2.1493,-2.1513,-2.1498,-2.1521,-2.1535,-2.1528,-2.1556,-2.1563,-2.1577,-2.1608,-2.1622,-2.1615,-2.1668,-2.1653,-2.1655,-2.1657,-2.1673,-2.1678,-2.1682,-2.1622,-2.1622,-2.1622,0,0,-2.1468,-2.1479,-2.1504,-2.1514,-2.1531,-2.1535,-2.1541,-2.1556,-2.1561,-2.1588,-2.1583,-2.16,-2.1632,-2.1642,-2.1652,-2.1691,-2.1686,-2.1696,-2.1715,-2.1732,-2.1736,-2.174,-2.1753,-2.1758,-2.1699,-2.1699,-2.1699,0,-2.1483,-2.1514,-2.1516,-2.1539,-2.155,-2.1545,-2.1569,-2.1579,-2.16,-2.1608,-2.16,-2.1639,-2.1648,-2.1681,-2.169,-2.1698,-2.1704,-2.1695,-2.1735,-2.1739,-2.1743,-2.1755,-2.1761,-2.17,-2.17,-2.17,-2.17,0,-2.1532,-2.1554,-2.1571,-2.1592,-2.1605,-2.1629,-2.1633,-2.1646,-2.1645,-2.165,-2.1678,-2.1689,-2.1708,-2.1716,-2.1715,-2.1748,-2.1743,-2.1735,-2.172,-2.1749,-2.1761,-2.1766,-2.1702,-2.1702,-2.1701,-2.1701,0,0,-2.1579,-2.16,-2.1606,-2.1615,-2.1632,-2.1648,-2.167,-2.169,-2.17,-2.1715,-2.1733,-2.1759,-2.1752,-2.1763,-2.1763,-2.1777,-2.1806,-2.1768,-2.1768,-2.1774,-2.1842,-2.1848,-2.1853,-2.1803,-2.1804,-2.1805,-2.1841,0,-2.1617,-2.1657,-2.1659,-2.1695,-2.1714,-2.1709,-2.1728,-2.174,-2.1745,-2.1761,-2.1766,-2.1784,-2.1774,-2.178,-2.1794,-2.18,-2.182,-2.1797,-2.1819,-2.182,-2.1816,-2.186,-2.1866,-2.1899,-2.1845,-2.1846,-2.1847,0,-2.1666,-2.1682,-2.172,-2.1734,-2.1742,-2.1759,-2.1776,-2.1792,-2.1805,-2.1807,-2.1819,-2.1816,-2.1838,-2.1822,-2.1852,-2.1836,-2.1845,-2.1849,-2.1851,-2.1853,-2.1835,-2.1863,-2.191,-2.1915,-2.1854,-2.1854,-2.1853,0,-2.1696,-2.1727,-2.1753,-2.1761,-2.1777,-2.1789,-2.1797,-2.1809,-2.182,-2.1834,-2.1841,-2.1858,-2.1867,-2.1879,-2.1881,-2.187,-2.191,-2.1895,-2.1912,-2.1912,-2.1921,-2.1921,-2.1971,-2.1927,-2.1927,-2.1927,-2.1927,0,-2.1738,-2.1761,-2.1767,-2.1783,-2.1809,-2.181,-2.1835,-2.1841,-2.1851,-2.1868,-2.1864,-2.188,-2.1881,-2.1897,-2.1899,-2.1922,-2.1926,-2.1928,-2.1928,-2.1929,-2.1928,-2.1934,-2.1932,-2.1929,-2.1928,-2.1928,-2.1928,0,-2.1776,-2.178,-2.1809,-2.1821,-2.1825,-2.1843,-2.1854,-2.1869,-2.1873,-2.1894,-2.1899,-2.1905,-2.1923,-2.1926,-2.1947,-2.1948,-2.1976,-2.1974,-2.1972,-2.1972,-2.1989,-2.1987,-2.2044,-2.2051,-2.2004,-2.2004,-2.2005,0,-2.1802,-2.182,-2.1834,-2.1845,-2.1853,-2.1871,-2.1882,-2.1883,-2.1895,-2.191,-2.1923,-2.1941,-2.1955,-2.1984,-2.199,-2.2006,-2.2004,-2.2023,-2.2006,-2.2006,-2.2004,-2.2002,-2.2004,-2.2026,-2.2027,-2.2027,-2.2027,0,-2.1848,-2.1849,-2.1866,-2.1883,-2.1896,-2.1909,-2.1922,-2.1931,-2.1934,-2.1947,-2.1965,-2.1976,-2.1998,-2.2015,-2.2031,-2.2037,-2.2032,-2.2032,-2.2037,-2.2038,-2.2035,-2.2036,-2.1981,-2.2031,-2.2031,-2.2031,-2.203,-2.203,-2.1881,-2.1896,-2.1908,-2.1926,-2.1936,-2.1947,-2.1962,-2.1967,-2.1983,-2.2001,-2.2,-2.2021,-2.2032,-2.2052,-2.2059,-2.2075,-2.2068,-2.2075,-2.2077,-2.2079,-2.208,-2.2033,-2.2077,-2.2077,-2.2077,-2.2077,-2.2077,0,-2.1926,-2.1934,-2.195,-2.1968,-2.1981,-2.1976,-2.1989,-2.2001,-2.2019,-2.203,-2.2044,-2.2064,-2.2081,-2.2088,-2.2104,-2.2114,-2.2112,-2.2118,-2.2117,-2.2119,-2.2085,-2.2079,-2.2119,-2.2119,-2.2119,-2.2119,-2.2119,-2.2119,-2.1952,-2.1977,-2.1979,-2.2008,-2.2015,-2.2035,-2.2043,-2.2053,-2.2062,-2.2085,-2.2099,-2.2103,-2.2112,-2.2128,-2.2143,-2.2144,-2.215,-2.2157,-2.2157,-2.2126,-2.2121,-2.2117,-2.2112,-2.2158,-2.2158,-2.219,-2.219,-2.219]}]]